User: anonymous   Login
Location: Bothwell
(42.3833°S, 147.0000°E)
Time: 00:17:35
(UTC+10:00)
Language:

VELOX 1 - Orbit

View from above orbital plane
View from above orbital plane
View from above satellite
View from above satellite

Ground track
Ground track

The orbit data is extracted from the following two-line orbital elements,

1 40057U 14034E   22274.16710002  .00002183  00000-0  29942-3 0  9995
2 40057  98.3709  90.9988 0010458 357.9765   2.1404 14.79489650445105
Epoch (UTC): 01 October 2022 04:00:37
Eccentricity: 0.0010458
inclination: 98.3709°
perigee height: 623 km
apogee height: 638 km
right ascension of ascending node: 90.9988°
argument of perigee: 357.9765°
revolutions per day: 14.79489650
mean anomaly at epoch: 2.1404°
orbit number at epoch: 44510

The dashed part of the orbit path shows where the satellite is in the earth's shadow,  

DLR